Wahiawa, HI

12:56 PM HST on February 19, 2017 (GMT -1000)
Wheeler Army Air Field

Weather History for PHHI - July, 2013

Change the Weather History Date:

Wednesday, July 3, 2013

  Actual Average Record
Temperature  
Mean Temperature 74 °F -  
Max Temperature 81 °F 79 °F 86 °F (2001)
Min Temperature 66 °F 66 °F 62 °F (2003)
Cooling Degree Days 8    
Growing Degree Days 24 (Base 50)    
Moisture  
Dew Point 64 °F    
Average Humidity 73    
Maximum Humidity 87    
Minimum Humidity 58    
Precipitation  
Precipitation 0.00 in - - ()
Sea Level Pressure  
Sea Level Pressure 29.96 in    
Wind  
Wind Speed 7 mph (NNE)    
Max Wind Speed 18 mph    
Max Gust Speed -    
Visibility 10 miles    
Events      
Averages and records for this station are not official NWS values.
T = Trace of Precipitation, MM = Missing Value Source: NWS Daily Summary

Daily Weather History Graph

Daily Weather History Graph

Search for Another Location

Airport or City:

Trip Planner

Search our weather history database for the weather conditions in past years. The results will help you decide how hot, cold, wet, or windy it might be!

Date:

Astronomy

Jul. 03, 2013 Rise Set
Actual Time 5:54 AM HST 7:18 PM HST
Civil Twilight 5:29 AM HST 7:43 PM HST
Nautical Twilight 4:59 AM HST 8:12 PM HST
Astronomical Twilight 4:29 AM HST 8:43 PM HST
Moon 2:26 AM HST (7/3) 3:49 PM HST (7/3)
Length of Visible Light 14h 14m
Length of Day
13h 24m
Waning Crescent, 16% of the Moon is Illuminated
Jul 3
Waning Crescent
Jul 7
New
Jul 15
First Quarter
Jul 22
Full
Jul 29
Last Quarter

Hourly Weather History & Observations

Time (HST) Temp. Heat Index Dew Point Humidity Pressure Visibility Wind Dir Wind Speed Gust Speed Precip Events Conditions
12:55 AM 68.4 °F - 63.0 °F 83% 29.94 in 10.0 mi WNW 5.8 mph - N/A   Partly Cloudy
1:55 AM 67.6 °F - 62.4 °F 83% 29.93 in 10.0 mi WNW 4.6 mph - N/A   Clear
2:55 AM 66.2 °F - 62.2 °F 87% 29.92 in 10.0 mi NW 4.6 mph - N/A   Clear
3:55 AM 66.4 °F - 62.2 °F 86% 29.93 in 10.0 mi NW 3.5 mph - N/A   Partly Cloudy
4:55 AM 67.1 °F - 63.1 °F 87% 29.94 in 10.0 mi Calm Calm - N/A   Overcast
5:55 AM 69.3 °F - 63.7 °F 82% 29.95 in 10.0 mi WNW 4.6 mph - N/A   Partly Cloudy
6:55 AM 68.0 °F - 63.9 °F 87% 29.97 in 10.0 mi WNW 4.6 mph - N/A   Scattered Clouds
7:55 AM 72.1 °F - 65.7 °F 80% 29.98 in 10.0 mi West 4.6 mph - N/A   Overcast
8:55 AM 75.0 °F - 65.1 °F 71% 29.99 in 10.0 mi Variable 5.8 mph - N/A   Overcast
9:55 AM 77.0 °F - 65.7 °F 68% 29.99 in 10.0 mi East 11.5 mph - N/A   Mostly Cloudy
10:55 AM 79.5 °F - 64.2 °F 59% 29.98 in 10.0 mi East 11.5 mph - N/A   Clear
11:55 AM 80.6 °F 82.5 °F 65.7 °F 60% 29.96 in 10.0 mi ENE 18.4 mph - N/A   Mostly Cloudy
12:55 PM 81.7 °F 83.8 °F 66.0 °F 59% 29.96 in 10.0 mi East 13.8 mph - N/A   Overcast
1:55 PM 79.7 °F - 63.5 °F 58% 29.95 in 10.0 mi ENE 15.0 mph - N/A   Overcast
2:55 PM 80.2 °F 81.9 °F 64.0 °F 58% 29.94 in 10.0 mi East 12.7 mph - N/A   Mostly Cloudy
3:55 PM 80.2 °F 82.1 °F 65.1 °F 60% 29.93 in 10.0 mi ENE 12.7 mph - N/A   Scattered Clouds
4:55 PM 78.4 °F - 64.6 °F 62% 29.92 in 10.0 mi ENE 16.1 mph - N/A   Clear
5:55 PM 77.0 °F - 62.8 °F 61% 29.93 in 10.0 mi ENE 12.7 mph - N/A   Clear
6:55 PM 74.8 °F - 64.4 °F 70% 29.96 in 10.0 mi ENE 8.1 mph - N/A   Clear
7:55 PM 72.9 °F - 63.5 °F 72% 29.97 in 10.0 mi Calm Calm - N/A   Clear
8:55 PM 71.8 °F - 63.7 °F 76% 29.98 in 10.0 mi Variable 3.5 mph - N/A   Clear
9:55 PM 68.4 °F - 63.1 °F 83% 29.99 in 10.0 mi Calm Calm - N/A   Clear
10:55 PM 68.5 °F - 63.3 °F 83% 29.99 in 10.0 mi WNW 3.5 mph - N/A   Clear
11:55 PM 66.9 °F - 63.0 °F 87% 29.99 in 10.0 mi West 4.6 mph - N/A   Clear